Total_Precipitation_Accumulation
0.00 0.00 0.02 0.00 0.00 0.00 0.00 0.00 0.00 0.00 0.00 0.01 0.02 0.02 0.00 0.00 0.00 0.00 0.00 0.00 0.00 0.01 0.01 0.00 0.00 0.01 0.01 0.00 0.00 0.00 0.00 0.00 0.00 0.00 0.00 0.01 0.01 0.01 0.01 0.02 0.09 0.14 0.05
0.00 0.00 0.01 0.00 0.00 0.00 0.00 0.00 0.00 0.00 0.00 0.00 0.00 0.00 0.00 0.00 0.00 0.00 0.00 0.00 0.00 0.00 0.00 0.00 0.00 0.00 0.00 0.00 0.00 0.00 0.00 0.00 0.00 0.00 0.00 0.00 0.00 0.00 0.01 0.01 0.08 0.10 0.02
0.00 0.00 0.00 0.00 0.00 0.00 0.00 0.00 0.00 0.00 0.00 0.00 0.00 0.00 0.00 0.00 0.00 0.00 0.00 0.00 0.00 0.00 0.00 0.00 0.00 0.00 0.00 0.00 0.00 0.00 0.00 0.00 0.00 0.00 0.01 0.01 0.00 0.00 0.00 0.00 0.01 0.01 0.01
0.00 0.00 0.00 0.00 0.00 0.00 0.00 0.00 0.00 0.00 0.00 0.00 0.00 0.00 0.00 0.00 0.00 0.00 0.00 0.00 0.00 0.00 0.00 0.00 0.00 0.00 0.00 0.00 0.00 0.00 0.00 0.00 0.00 0.00 0.02 0.05 0.01 0.00 0.00 0.00 0.00 0.00 0.00
0.00 0.00 0.00 0.00 0.00 0.00 0.00 0.00 0.00 0.00 0.00 0.00 0.00 0.00 0.00 0.00 0.00 0.00 0.00 0.00 0.00 0.00 0.00 0.00 0.00 0.00 0.00 0.01 0.01 0.01 0.00 0.00 0.00 0.00 0.01 0.03 0.05 0.02 0.01 0.03 0.02 0.01 0.00
0.00 0.00 0.00 0.00 0.00 0.00 0.00 0.00 0.00 0.00 0.00 0.00 0.00 0.00 0.00 0.00 0.00 0.00 0.00 0.00 0.00 0.00 0.00 0.00 0.00 0.00 0.00 0.01 0.01 0.01 0.01 0.01 0.01 0.01 0.01 0.02 0.10 0.09 0.05 0.12 0.16 0.11 0.04
0.00 0.00 0.00 0.00 0.00 0.00 0.00 0.00 0.00 0.00 0.00 0.00 0.00 0.00 0.00 0.00 0.00 0.00 0.00 0.00 0.00 0.00 0.00 0.01 0.01 0.01 0.00 0.00 0.00 0.01 0.00 0.00 0.01 0.02 0.02 0.02 0.07 0.07 0.11 0.26 0.37 0.32 0.22
0.00 0.00 0.00 0.00 0.00 0.00 0.00 0.00 0.00 0.00 0.00 0.00 0.00 0.00 0.00 0.00 0.01 0.01 0.02 0.01 0.01 0.01 0.01 0.01 0.01 0.01 0.01 0.02 0.02 0.02 0.02 0.01 0.00 0.01 0.01 0.02 0.04 0.05 0.17 0.34 0.46 0.51 0.47
0.00 0.00 0.00 0.00 0.00 0.00 0.00 0.00 0.00 0.00 0.00 0.00 0.00 0.00 0.00 0.00 0.02 0.03 0.05 0.04 0.03 0.03 0.03 0.02 0.01 0.01 0.02 0.03 0.03 0.03 0.03 0.03 0.02 0.02 0.02 0.03 0.05 0.10 0.28 0.40 0.48 0.59 0.64
0.00 0.00 0.00 0.00 0.00 0.00 0.00 0.00 0.00 0.00 0.00 0.00 0.00 0.01 0.01 0.01 0.02 0.04 0.04 0.05 0.07 0.08 0.08 0.06 0.03 0.02 0.02 0.02 0.01 0.01 0.02 0.03 0.02 0.03 0.05 0.04 0.05 0.15 0.30 0.36 0.51 0.61 0.65
0.01 0.01 0.00 0.00 0.00 0.00 0.00 0.00 0.00 0.01 0.01 0.00 0.01 0.01 0.01 0.01 0.03 0.08 0.10 0.12 0.12 0.11 0.10 0.06 0.04 0.04 0.05 0.03 0.04 0.09 0.06 0.03 0.02 0.04 0.03 0.04 0.07 0.19 0.31 0.41 0.50 0.57 0.60
0.01 0.01 0.01 0.00 0.00 0.00 0.00 0.00 0.00 0.01 0.02 0.02 0.03 0.08 0.10 0.15 0.13 0.07 0.14 0.22 0.18 0.18 0.13 0.10 0.10 0.08 0.08 0.10 0.34 0.54 0.16 0.10 0.10 0.08 0.08 0.15 0.24 0.33 0.47 0.48 0.46 0.49 0.47
0.00 0.00 0.00 0.00 0.01 0.01 0.00 0.00 0.00 0.01 0.05 0.05 0.06 0.12 0.21 0.20 0.13 0.09 0.08 0.14 0.20 0.17 0.13 0.22 0.28 0.18 0.20 0.29 0.44 0.50 0.25 0.18 0.12 0.09 0.11 0.22 0.36 0.48 0.62 0.56 0.48 0.43 0.41
0.00 0.01 0.01 0.01 0.01 0.01 0.01 0.01 0.01 0.01 0.03 0.03 0.07 0.07 0.14 0.15 0.09 0.06 0.07 0.08 0.11 0.13 0.22 0.27 0.31 0.25 0.30 0.28 0.34 0.29 0.27 0.28 0.17 0.22 0.23 0.29 0.31 0.35 0.58 0.63 0.50 0.45 0.42
0.00 0.01 0.02 0.02 0.03 0.05 0.06 0.05 0.03 0.02 0.01 0.01 0.03 0.04 0.07 0.12 0.10 0.11 0.12 0.11 0.08 0.11 0.23 0.32 0.30 0.34 0.42 0.40 0.32 0.27 0.28 0.31 0.32 0.45 0.31 0.30 0.24 0.22 0.43 0.51 0.44 0.43 0.40
0.02 0.03 0.05 0.07 0.10 0.12 0.13 0.11 0.08 0.06 0.06 0.05 0.06 0.07 0.10 0.17 0.22 0.25 0.22 0.26 0.23 0.26 0.34 0.43 0.47 0.61 0.60 0.59 0.46 0.42 0.37 0.36 0.40 0.46 0.35 0.34 0.24 0.18 0.26 0.34 0.40 0.40 0.39
0.04 0.06 0.10 0.17 0.23 0.23 0.19 0.15 0.14 0.15 0.16 0.18 0.22 0.26 0.30 0.34 0.41 0.47 0.41 0.39 0.49 0.57 0.60 0.63 0.70 0.80 0.76 0.73 0.58 0.56 0.51 0.45 0.41 0.40 0.35 0.34 0.29 0.22 0.19 0.23 0.32 0.33 0.34
0.07 0.12 0.20 0.31 0.33 0.32 0.31 0.30 0.27 0.26 0.28 0.31 0.36 0.38 0.44 0.52 0.61 0.63 0.49 0.46 0.76 0.83 0.83 0.92 0.94 0.99 1.09 1.08 0.86 0.73 0.66 0.57 0.42 0.37 0.34 0.34 0.33 0.22 0.18 0.22 0.25 0.29 0.36
0.15 0.23 0.36 0.45 0.49 0.54 0.50 0.44 0.40 0.40 0.36 0.33 0.37 0.41 0.50 0.63 0.72 0.81 0.62 0.63 0.94 1.05 1.05 1.05 1.20 1.35 1.32 1.33 1.13 0.91 0.73 0.58 0.42 0.38 0.34 0.29 0.27 0.24 0.22 0.20 0.14 0.21 0.39
0.27 0.33 0.36 0.48 0.62 0.76 0.78 0.66 0.53 0.43 0.35 0.34 0.37 0.40 0.46 0.57 0.78 0.99 0.78 0.83 1.11 1.14 1.10 1.23 1.34 1.46 1.36 1.43 1.30 0.90 0.68 0.49 0.43 0.33 0.28 0.23 0.16 0.14 0.16 0.22 0.27 0.26 0.36
0.22 0.28 0.41 0.58 0.70 0.76 0.83 0.79 0.70 0.53 0.49 0.42 0.41 0.47 0.56 0.66 0.84 1.11 0.96 1.03 1.13 1.08 1.04 1.21 1.32 1.26 1.16 1.53 1.46 0.89 0.51 0.37 0.27 0.17 0.18 0.16 0.12 0.09 0.12 0.20 0.28 0.30 0.29
0.27 0.36 0.47 0.53 0.59 0.62 0.69 0.77 0.83 0.89 0.79 0.69 0.70 0.77 0.80 0.88 0.95 1.07 1.11 1.06 1.09 1.05 0.92 0.95 1.12 1.05 0.84 1.23 1.37 1.22 0.71 0.37 0.23 0.13 0.13 0.13 0.15 0.16 0.17 0.18 0.21 0.30 0.30
0.37 0.43 0.50 0.50 0.52 0.60 0.74 0.88 0.98 1.09 1.04 1.05 1.12 1.20 1.12 1.14 1.12 1.17 1.09 1.05 1.02 1.02 0.86 0.80 0.95 1.00 0.83 0.92 1.24 1.47 1.04 0.53 0.37 0.19 0.21 0.25 0.31 0.36 0.35 0.31 0.29 0.30 0.35
0.46 0.50 0.60 0.62 0.62 0.76 0.98 1.10 1.15 1.29 1.42 1.57 1.78 1.73 1.58 1.44 1.30 1.20 1.04 0.91 0.81 0.81 0.74 0.72 0.83 0.91 0.92 0.76 0.86 1.01 1.01 0.90 0.74 0.40 0.26 0.32 0.47 0.50 0.47 0.42 0.36 0.35 0.41
0.57 0.59 0.74 0.80 0.92 1.12 1.30 1.42 1.51 1.58 1.67 1.67 1.68 1.59 1.46 1.36 1.22 1.09 0.96 0.86 0.79 0.73 0.67 0.65 0.68 0.71 0.74 0.68 0.69 0.72 0.82 0.86 0.81 0.67 0.45 0.46 0.47 0.38 0.36 0.33 0.35 0.44 0.53
0.94 0.88 0.92 1.02 1.16 1.30 1.37 1.45 1.48 1.44 1.40 1.31 1.20 1.09 0.99 0.93 0.84 0.76 0.67 0.59 0.58 0.57 0.58 0.57 0.57 0.58 0.59 0.61 0.63 0.65 0.72 0.80 0.89 0.91 0.75 0.64 0.56 0.48 0.44 0.40 0.41 0.47 0.54